Temp
54 55 55 55 55 55 55 56 56 56 56 57 57 57 57 57 57 53 51 53 46 39 43 47 49 46 47 48 41 46 44 41 43 40 41 39 38 44 43 53 51 49 47 54 55 50 49 72 75 66 66 72 74 75
54 55 55 55 55 55 55 55 56 56 56 56 57 57 57 57 57 56 47 54 52 44 43 51 51 54 53 54 49 50 45 42 42 40 40 39 41 44 44 44 59 47 54 48 54 56 64 68 69 69 71 71 73 73
54 54 54 55 55 55 55 55 55 56 56 56 56 56 56 56 56 55 49 51 49 43 44 47 47 57 60 58 58 45 49 53 48 46 43 40 39 46 41 44 48 53 54 53 53 56 56 71 67 68 76 76 78 75
54 54 54 54 55 55 55 55 55 55 56 56 56 56 56 56 56 55 49 50 48 44 37 43 60 55 62 61 62 58 56 58 50 46 44 42 40 48 44 45 46 49 51 49 52 55 57 64 59 71 76 76 74 75
54 54 54 54 54 55 55 55 55 55 55 56 56 56 56 56 55 54 55 53 50 43 37 40 49 57 59 59 60 62 58 55 46 39 42 40 45 46 48 48 46 51 48 47 47 53 54 55 57 61 69 71 71 71
54 54 54 54 54 54 55 55 55 55 55 55 55 55 55 55 55 52 44 49 53 49 40 35 52 53 55 55 54 53 59 56 54 46 43 44 49 47 44 44 49 51 53 54 53 57 55 57 58 59 60 69 72 72
54 54 54 54 54 55 55 55 55 55 55 55 55 54 55 54 53 47 44 49 50 48 40 36 40 55 56 55 56 57 59 56 54 47 44 45 47 48 46 44 50 53 54 55 58 59 54 54 53 57 62 71 70 71
54 54 54 54 54 55 55 55 55 55 55 55 54 54 54 54 51 46 51 53 51 45 42 34 36 44 53 48 50 58 54 53 52 49 47 46 47 47 44 49 51 52 53 55 55 57 54 55 57 56 59 65 64 65
54 54 54 54 54 55 54 54 54 55 54 54 54 54 53 49 46 48 53 51 49 44 37 36 33 37 49 48 50 48 49 44 50 45 45 45 44 42 46 48 49 50 50 53 54 56 58 57 56 57 57 58 60 62
54 54 53 54 54 54 54 54 54 54 54 54 53 52 47 49 55 53 46 42 40 40 36 33 39 36 49 46 44 45 47 44 41 44 46 40 41 48 50 50 50 50 51 52 53 53 56 56 57 57 57 58 57 58
53 53 53 53 53 53 53 54 55 54 54 58 54 53 56 56 50 47 42 38 36 34 36 37 39 38 51 43 44 47 44 42 35 41 40 38 38 45 50 50 51 51 51 51 52 54 55 56 57 58 59 60 59 58
53 53 53 53 53 53 53 54 54 55 56 52 50 53 56 49 46 41 41 43 40 39 42 41 44 46 47 50 45 46 41 43 38 47 39 34 41 48 49 52 52 53 54 54 56 57 59 61 61 59 59 60 61 60
53 53 53 53 53 53 54 54 54 54 54 58 50 48 47 44 35 36 35 39 41 47 48 47 45 47 48 48 44 43 41 41 48 38 33 38 45 47 49 51 54 55 55 55 59 62 62 63 64 61 59 60 59 60
52 52 52 53 53 54 55 55 54 55 56 54 51 38 44 42 37 39 42 44 49 51 50 49 48 46 48 46 47 44 46 45 37 34 35 42 45 48 52 53 54 57 57 60 62 64 64 63 61 62 63 63 63 61
52 52 53 55 55 55 55 54 54 60 58 54 54 41 48 54 58 55 53 49 51 54 54 53 54 52 50 49 48 47 41 35 37 36 41 47 50 51 54 59 61 61 61 62 64 63 64 63 62 62 64 64 64 64
52 53 59 55 56 55 54 56 63 64 63 60 57 51 55 53 53 57 59 57 65 62 60 59 53 50 46 45 43 40 38 36 41 46 49 50 51 55 57 59 59 60 61 61 61 61 61 61 62 62 63 63 63 63
51 54 56 56 54 53 57 59 65 65 63 60 53 62 55 53 51 52 60 60 66 61 53 53 45 42 47 42 40 43 39 43 46 49 51 52 53 56 57 58 61 61 61 60 60 61 61 63 64 63 62 62 62 63
55 62 57 55 53 57 66 66 65 64 58 57 53 54 56 56 54 59 61 62 60 58 57 52 54 45 41 40 42 45 48 50 51 51 52 54 56 58 58 58 60 61 60 60 61 62 64 63 61 61 60 63 64 64
55 55 53 53 53 52 59 65 64 57 58 58 56 56 57 59 58 62 62 62 62 62 58 52 46 42 43 47 46 48 49 49 47 49 52 56 56 58 60 61 61 61 60 60 59 61 63 60 62 63 64 64 62 62
52 53 54 55 55 60 62 62 68 61 55 55 56 56 58 58 61 62 61 60 60 57 52 48 47 48 48 50 51 51 53 55 52 51 52 58 59 60 60 61 61 62 63 60 61 58 62 61 62 62 62 59 60 60
58 63 59 63 64 62 65 62 60 60 59 54 58 57 54 61 58 56 57 60 55 52 50 51 53 56 56 56 58 58 57 58 56 58 55 55 59 61 61 62 62 63 62 62 61 60 58 58 58 60 60 61 61 63
65 59 64 68 66 65 61 66 60 60 59 60 59 59 55 53 53 53 57 54 51 51 53 56 57 59 56 55 55 56 56 57 58 60 58 61 60 61 62 63 62 61 60 60 60 59 60 61 58 62 59 59 59 60
59 59 63 67 62 49 51 69 61 62 55 54 58 55 54 54 54 59 50 51 52 56 59 59 58 59 58 58 57 56 57 57 59 59 60 62 62 62 61 60 59 57 57 58 60 60 59 54 59 60 61 60 59 58
53 60 59 58 59 49 63 58 64 61 58 52 52 49 51 53 59 53 47 50 53 59 58 56 59 57 58 57 57 55 57 60 59 60 60 60 60 58 59 57 58 58 58 59 59 58 58 59 55 59 58 57 57 56
48 50 53 40 58 59 56 58 59 58 54 58 53 47 47 50 45 47 46 50 54 55 55 57 57 57 56 57 59 57 57 58 56 55 58 60 58 58 57 58 55 55 58 56 55 55 55 57 56 56 56 55 54 55
41 60 49 61 59 58 59 55 56 56 56 53 54 53 52 49 45 40 43 50 54 56 58 57 57 58 58 59 57 56 56 58 56 54 56 58 56 54 52 51 50 51 57 57 54 53 54 54 53 53 53 53 50 53
47 50 62 69 57 58 59 62 62 59 55 52 53 55 52 45 42 47 53 57 58 61 62 62 62 60 59 59 60 59 59 57 54 54 58 58 57 56 55 52 49 51 56 56 55 54 52 52 51 52 52 53 51 51
50 49 51 58 61 64 58 58 57 55 56 59 58 51 48 48 47 55 58 62 64 64 64 64 64 64 62 61 61 60 58 57 56 55 57 57 56 56 55 56 55 47 54 54 54 54 53 52 51 51 50 49 49 50
52 54 55 59 62 63 61 58 58 60 62 62 55 51 52 57 60 60 62 64 66 64 62 62 60 62 62 61 60 60 56 54 49 44 44 45 47 50 54 55 55 55 55 55 48 51 51 50 50 50 50 49 49 49
60 60 60 64 61 58 62 65 63 65 64 62 61 59 58 59 63 66 66 65 64 62 62 62 61 59 56 56 55 55 55 53 51 46 43 44 46 51 52 52 52 53 53 53 53 53 48 51 49 50 49 48 47 46
67 64 67 65 62 64 67 69 69 68 66 64 63 58 56 58 59 65 66 66 66 64 62 61 61 59 57 55 53 52 51 53 51 51 50 51 50 50 51 52 52 52 52 52 51 50 49 49 48 47 47 46 46 46
71 69 67 63 63 68 70 66 64 62 62 60 56 60 58 52 52 60 66 66 64 61 56 60 58 56 58 58 57 57 50 54 52 51 51 50 49 50 51 52 51 51 51 51 51 50 49 48 47 47 46 46 46 46
72 72 71 68 64 63 62 64 62 61 60 56 58 58 58 57 53 60 66 67 63 61 60 60 61 59 57 57 56 56 52 53 48 43 42 41 40 42 47 51 50 50 50 49 49 49 48 47 47 46 46 45 45 45
MSLP
1021.96 1021.35 1020.72 1020.22 1019.68 1019.06 1018.41 1017.77 1017.19 1016.64 1016.08 1015.59 1015.10 1014.66 1014.33 1014.07 1013.83 1013.85 1013.34 1013.17 1013.55 1012.86 1011.67 1011.26 1010.19 1009.47 1008.72 1008.01 1007.47 1006.77 1006.52 1007.03 1005.88 1004.93 1004.74 1003.90 1002.71 1001.33 999.47 996.58 994.97 994.46 994.46 992.66 991.87 990.48 989.55 988.32 987.85 988.55 988.73 988.14 988.35 987.97
1021.72 1021.14 1020.59 1020.04 1019.42 1018.81 1018.26 1017.77 1017.15 1016.60 1016.05 1015.60 1015.12 1014.67 1014.32 1014.00 1013.74 1013.51 1013.12 1012.45 1012.57 1012.19 1010.98 1010.16 1009.12 1008.66 1008.50 1007.41 1007.52 1006.97 1006.91 1007.20 1007.30 1006.26 1005.28 1004.37 1002.59 1001.39 1000.22 997.53 994.98 996.70 996.62 996.02 994.05 991.37 990.25 989.53 989.36 989.32 989.31 988.49 988.83 988.84
1021.56 1021.03 1020.47 1019.83 1019.28 1018.74 1018.22 1017.66 1017.05 1016.40 1015.86 1015.40 1014.98 1014.54 1014.11 1013.78 1013.44 1013.27 1012.88 1012.56 1012.51 1011.88 1010.30 1008.80 1007.33 1006.03 1005.93 1006.00 1006.14 1006.84 1005.94 1005.93 1006.30 1006.78 1005.78 1005.10 1003.28 1001.74 1000.86 999.41 997.51 996.88 997.22 996.70 995.44 993.00 991.60 990.41 990.89 990.60 989.27 989.38 989.64 989.76
1021.39 1020.76 1020.19 1019.62 1019.03 1018.48 1017.93 1017.33 1016.72 1016.15 1015.59 1015.06 1014.64 1014.18 1013.78 1013.41 1013.13 1012.96 1012.68 1012.17 1012.26 1011.82 1010.51 1007.44 1005.93 1005.17 1004.35 1004.28 1004.22 1004.83 1004.43 1005.15 1005.84 1006.60 1005.60 1005.08 1004.03 1002.09 1001.16 1000.92 999.32 998.60 999.11 998.55 996.70 995.34 993.55 993.03 993.20 991.62 990.74 990.27 990.60 990.61
1021.14 1020.48 1019.95 1019.32 1018.72 1018.19 1017.55 1016.79 1016.24 1015.60 1015.06 1014.64 1014.11 1013.68 1013.32 1013.01 1012.75 1012.36 1011.68 1011.23 1011.28 1011.84 1010.48 1008.09 1006.32 1003.99 1003.46 1003.00 1003.11 1002.96 1003.68 1004.29 1005.33 1006.43 1005.51 1004.97 1003.61 1002.08 1000.75 999.66 999.08 999.91 1000.38 1000.37 999.07 998.20 997.69 997.15 996.08 994.37 991.83 991.43 991.89 992.11
1020.91 1020.27 1019.66 1019.07 1018.48 1017.78 1017.18 1016.43 1015.72 1015.09 1014.52 1013.99 1013.45 1013.06 1012.78 1012.59 1012.45 1012.05 1011.16 1011.10 1010.95 1011.37 1010.73 1008.81 1005.43 1003.77 1003.35 1002.90 1002.81 1002.56 1002.39 1002.77 1003.55 1004.78 1004.79 1004.49 1003.54 1002.39 1000.88 999.73 999.89 1000.24 999.97 1000.12 999.67 999.46 999.31 998.13 996.34 995.73 995.45 993.38 992.78 992.51
1020.57 1019.91 1019.29 1018.62 1017.99 1017.29 1016.59 1015.64 1014.97 1014.42 1013.77 1013.04 1012.47 1012.08 1011.91 1011.88 1012.21 1011.98 1011.22 1011.04 1011.13 1011.49 1011.08 1009.31 1006.78 1003.98 1002.90 1002.29 1002.23 1001.89 1001.53 1002.20 1002.81 1003.42 1003.88 1003.48 1002.81 1002.27 1001.01 1000.68 1001.00 1001.31 1000.76 1000.14 999.54 999.31 998.87 998.80 999.21 998.70 997.53 995.42 994.04 994.15
1020.25 1019.54 1018.86 1018.22 1017.37 1016.72 1015.78 1014.82 1014.08 1013.62 1012.48 1011.85 1011.42 1011.15 1011.17 1011.11 1011.33 1011.24 1010.06 1009.80 1010.48 1011.22 1011.04 1009.89 1007.81 1005.38 1003.92 1002.99 1002.09 1001.39 1001.78 1002.36 1002.76 1003.25 1003.79 1003.53 1003.10 1002.72 1001.92 1001.64 1001.30 1000.52 1000.17 1000.02 1000.04 999.75 999.75 999.64 999.36 998.89 998.87 998.68 996.03 996.53
1019.95 1019.17 1018.41 1017.68 1016.88 1016.08 1015.22 1014.13 1013.21 1012.52 1011.28 1010.47 1010.06 1010.05 1010.37 1010.85 1010.47 1009.80 1009.85 1010.18 1010.46 1011.18 1010.61 1009.89 1008.43 1006.11 1004.65 1003.39 1002.68 1002.79 1002.78 1003.15 1003.24 1003.62 1003.99 1004.30 1003.11 1002.45 1002.35 1001.90 1001.19 1000.75 1000.46 1000.17 1000.67 1000.40 999.98 999.92 1000.42 1000.66 1000.88 1000.16 999.14 998.04
1019.57 1018.84 1018.02 1017.18 1016.27 1015.45 1014.75 1013.72 1012.36 1011.68 1010.25 1009.38 1009.62 1009.66 1009.44 1009.32 1009.41 1009.69 1010.19 1010.32 1010.67 1010.71 1010.69 1009.55 1008.23 1006.75 1004.95 1003.97 1003.58 1003.68 1003.38 1003.25 1003.27 1004.03 1004.24 1004.48 1003.82 1002.90 1002.36 1002.18 1002.01 1001.43 1001.17 1000.82 1000.86 1000.90 1000.75 1000.76 1001.01 1001.08 1001.13 1000.37 999.64 999.70
1019.24 1018.51 1017.67 1016.70 1015.71 1014.80 1013.99 1013.03 1012.11 1011.21 1009.55 1009.31 1009.50 1009.23 1009.22 1009.20 1009.39 1009.21 1009.17 1009.45 1009.56 1009.44 1009.08 1008.01 1007.04 1006.07 1004.26 1004.06 1003.25 1003.34 1003.08 1003.74 1003.94 1004.17 1004.57 1004.75 1004.28 1003.40 1003.21 1002.97 1002.60 1002.29 1002.06 1001.86 1001.59 1001.39 1001.16 1001.15 1001.23 1001.03 1000.88 1000.82 1000.75 1000.35
1018.80 1018.08 1017.27 1016.26 1015.32 1014.21 1013.44 1012.58 1011.91 1011.36 1010.83 1011.07 1011.26 1010.28 1009.26 1008.96 1008.71 1008.78 1008.21 1007.74 1007.50 1006.92 1006.31 1005.96 1005.13 1004.60 1004.00 1003.78 1003.57 1003.40 1003.43 1003.60 1003.68 1004.22 1004.86 1005.48 1004.98 1004.13 1003.91 1003.51 1003.57 1003.39 1003.20 1003.07 1002.66 1001.90 1001.95 1001.80 1001.47 1001.41 1001.42 1001.30 1000.94 1000.51
1018.32 1017.52 1016.73 1015.85 1014.86 1013.66 1012.67 1012.32 1011.59 1011.21 1010.49 1009.96 1010.36 1009.73 1008.64 1008.93 1008.79 1008.26 1007.40 1006.31 1005.52 1004.87 1004.24 1004.14 1003.79 1003.40 1003.51 1003.67 1003.78 1003.62 1003.37 1003.44 1004.21 1005.29 1006.16 1006.12 1005.38 1004.53 1004.00 1003.52 1003.26 1003.24 1002.95 1002.57 1001.83 1001.46 1001.18 1001.31 1001.26 1001.41 1001.33 1001.22 1001.08 1000.83
1017.79 1016.92 1016.18 1015.37 1014.34 1013.15 1012.12 1011.46 1011.25 1010.69 1010.36 1009.27 1008.84 1009.02 1008.86 1008.49 1008.38 1007.60 1006.55 1005.76 1004.45 1003.32 1002.52 1002.28 1002.21 1002.62 1002.69 1002.98 1002.92 1003.06 1003.95 1004.57 1005.58 1006.27 1006.43 1005.99 1005.21 1004.86 1003.59 1003.05 1003.01 1002.17 1002.32 1001.99 1001.66 1001.51 1001.71 1001.79 1001.81 1001.74 1001.67 1001.65 1001.58 1001.56
1017.20 1016.23 1015.42 1014.54 1013.63 1012.66 1011.69 1010.78 1010.39 1010.35 1009.96 1008.83 1008.69 1008.79 1008.39 1007.80 1006.32 1005.31 1004.36 1004.07 1002.47 1001.52 1001.28 1001.02 1001.13 1001.25 1002.02 1002.62 1003.33 1004.02 1005.10 1006.25 1006.98 1007.16 1006.82 1006.12 1005.34 1004.60 1003.32 1002.74 1002.48 1002.35 1002.30 1002.29 1002.17 1002.09 1002.12 1002.26 1002.25 1002.12 1001.93 1001.94 1001.89 1001.97
1016.78 1015.56 1014.54 1013.93 1013.08 1012.04 1011.17 1010.22 1009.46 1009.36 1008.50 1008.38 1008.66 1008.77 1008.27 1007.57 1006.55 1005.20 1003.86 1002.85 1001.47 1000.87 1000.50 1000.98 1001.74 1002.49 1003.84 1004.85 1005.25 1006.08 1006.72 1007.32 1007.28 1007.02 1006.84 1006.21 1005.55 1004.44 1003.91 1003.71 1003.41 1003.16 1003.19 1003.22 1003.02 1002.75 1002.84 1002.72 1002.62 1002.58 1002.48 1002.34 1002.33 1002.54
1016.51 1015.59 1014.02 1013.63 1013.09 1011.85 1010.47 1010.46 1009.12 1008.27 1008.09 1008.49 1009.04 1008.81 1008.63 1008.10 1007.37 1006.26 1004.78 1003.79 1002.79 1001.86 1001.90 1002.42 1003.97 1005.48 1006.29 1006.87 1007.28 1007.86 1008.33 1008.41 1008.10 1007.67 1007.49 1006.75 1006.08 1005.26 1004.65 1004.28 1004.03 1003.88 1003.89 1004.05 1003.77 1003.71 1003.49 1003.09 1003.07 1002.99 1003.10 1003.07 1003.17 1003.10
1016.07 1014.61 1014.29 1013.93 1013.72 1012.18 1010.67 1010.01 1009.38 1008.73 1009.21 1009.78 1009.64 1009.53 1009.11 1008.57 1007.83 1006.78 1005.94 1004.94 1003.97 1003.83 1004.08 1004.57 1005.68 1006.75 1007.49 1007.83 1008.29 1008.98 1008.69 1008.47 1008.24 1008.04 1007.69 1007.09 1006.06 1005.50 1005.23 1005.14 1004.87 1004.64 1004.57 1004.50 1004.41 1004.56 1004.36 1004.28 1004.20 1004.18 1004.08 1004.08 1003.89 1003.75
1015.99 1015.35 1014.49 1014.03 1014.42 1013.91 1011.64 1010.13 1009.99 1009.64 1010.08 1010.45 1010.65 1010.29 1009.74 1009.19 1008.61 1007.99 1007.40 1006.91 1006.37 1006.06 1005.73 1006.83 1008.16 1009.40 1009.85 1010.12 1010.12 1009.64 1009.27 1009.31 1009.10 1008.43 1007.65 1006.97 1006.23 1005.75 1005.51 1005.24 1005.00 1005.00 1005.05 1005.14 1005.12 1005.20 1005.28 1005.37 1005.53 1005.34 1005.18 1004.91 1004.74 1004.89
1015.25 1014.54 1014.01 1013.49 1013.82 1013.03 1011.37 1010.60 1010.01 1010.16 1010.61 1011.01 1011.11 1010.86 1010.52 1010.04 1009.71 1009.21 1008.94 1008.51 1007.99 1007.76 1008.10 1009.34 1010.53 1011.11 1011.03 1010.87 1010.38 1009.95 1009.25 1008.99 1009.01 1008.55 1008.15 1007.51 1006.56 1006.16 1006.05 1006.03 1005.86 1005.88 1005.91 1005.99 1006.11 1006.23 1006.45 1006.50 1006.43 1006.27 1006.04 1005.97 1005.70 1005.59
1014.45 1013.71 1013.10 1012.89 1012.90 1012.53 1011.66 1011.19 1010.64 1010.84 1011.00 1011.18 1011.17 1011.39 1011.20 1010.90 1010.70 1010.61 1010.45 1010.42 1009.85 1010.01 1010.51 1010.95 1011.06 1011.30 1011.14 1010.89 1010.60 1010.15 1009.61 1009.02 1008.99 1008.81 1008.31 1007.84 1007.35 1006.92 1006.53 1006.39 1006.47 1006.70 1006.79 1006.92 1006.99 1007.15 1007.22 1007.35 1007.31 1006.88 1006.63 1006.47 1006.34 1006.30
1014.14 1013.89 1013.39 1012.15 1012.02 1011.89 1011.55 1011.01 1010.96 1010.93 1011.06 1011.03 1011.23 1011.60 1011.81 1011.74 1011.72 1011.81 1011.92 1011.57 1011.79 1012.12 1011.95 1011.79 1011.59 1011.45 1011.32 1011.32 1011.30 1011.02 1010.59 1009.91 1009.50 1009.02 1008.67 1008.15 1007.91 1007.61 1007.48 1007.31 1007.30 1007.43 1007.58 1007.81 1007.86 1007.92 1007.91 1007.76 1007.53 1007.21 1006.93 1006.78 1006.65 1006.68
1014.60 1014.37 1013.40 1012.10 1011.84 1012.12 1011.55 1010.56 1010.66 1010.73 1011.07 1011.35 1011.57 1011.87 1012.28 1012.41 1012.74 1012.74 1013.16 1013.39 1013.32 1013.11 1012.75 1012.38 1012.05 1012.04 1011.96 1011.82 1011.76 1011.55 1011.16 1010.79 1010.25 1009.85 1009.51 1009.08 1008.88 1008.73 1008.88 1009.02 1009.18 1009.15 1009.03 1009.06 1008.77 1008.67 1008.60 1008.32 1008.30 1008.10 1007.64 1007.49 1007.26 1007.34
1015.01 1014.38 1013.26 1012.55 1011.96 1011.76 1011.09 1010.62 1010.43 1010.48 1010.62 1011.35 1012.07 1012.60 1013.08 1013.21 1013.28 1013.69 1014.35 1014.45 1014.36 1013.81 1013.42 1013.29 1013.02 1012.85 1012.52 1012.36 1012.34 1012.40 1012.33 1011.95 1011.54 1011.08 1010.76 1010.10 1009.70 1010.01 1010.25 1010.76 1010.72 1010.67 1010.65 1010.38 1010.00 1009.82 1009.73 1009.42 1009.20 1009.03 1008.87 1008.79 1008.73 1008.78
1015.41 1014.51 1013.59 1012.73 1011.91 1011.15 1010.82 1010.30 1010.34 1010.43 1010.84 1010.97 1011.80 1013.21 1013.90 1013.99 1014.37 1014.74 1015.22 1015.47 1014.99 1014.73 1014.37 1013.93 1013.60 1013.29 1013.03 1012.84 1012.68 1013.06 1013.13 1013.17 1012.98 1012.54 1012.15 1011.31 1011.17 1011.16 1011.18 1011.46 1012.09 1012.27 1011.93 1011.57 1011.40 1011.13 1010.94 1010.67 1010.59 1010.52 1010.36 1010.15 1009.94 1009.58
1014.81 1013.37 1012.80 1011.91 1011.39 1011.18 1010.93 1010.81 1010.73 1010.74 1011.00 1011.34 1011.94 1012.74 1013.48 1014.40 1015.15 1016.15 1016.51 1016.20 1015.46 1014.96 1014.62 1014.47 1013.97 1013.54 1013.45 1013.48 1013.71 1014.01 1014.27 1014.29 1014.35 1014.12 1013.63 1013.04 1012.80 1012.93 1012.99 1013.02 1013.22 1013.50 1013.04 1012.57 1012.35 1012.20 1012.02 1011.95 1011.88 1011.68 1011.36 1011.04 1010.85 1010.77
1015.11 1014.59 1012.61 1011.53 1011.90 1011.59 1011.12 1011.00 1010.96 1011.09 1011.34 1011.81 1012.22 1012.35 1013.16 1014.49 1015.65 1016.22 1016.28 1015.54 1015.04 1014.72 1014.44 1014.34 1014.02 1014.01 1014.05 1014.10 1014.33 1014.69 1014.98 1015.25 1015.63 1015.52 1014.79 1014.61 1014.53 1014.60 1014.44 1014.38 1014.46 1014.46 1013.78 1013.57 1013.43 1013.16 1013.08 1013.03 1012.93 1012.62 1012.38 1012.16 1012.25 1012.11
1015.39 1015.19 1013.94 1012.63 1011.83 1011.49 1011.34 1011.44 1011.44 1011.59 1011.75 1011.77 1012.20 1013.01 1013.96 1014.71 1015.52 1015.58 1015.37 1014.90 1014.73 1014.42 1014.29 1013.97 1014.36 1014.44 1014.58 1014.74 1014.93 1015.16 1015.59 1015.99 1016.35 1016.26 1015.54 1015.44 1015.51 1015.50 1015.30 1015.09 1014.91 1014.62 1014.32 1014.02 1013.83 1013.66 1013.67 1013.50 1013.41 1013.23 1013.17 1013.20 1013.21 1013.17
1014.08 1013.64 1013.34 1012.24 1011.54 1011.30 1011.49 1011.81 1012.09 1012.48 1012.64 1012.23 1012.86 1013.92 1014.72 1015.25 1015.47 1015.15 1014.92 1014.56 1014.09 1013.97 1014.22 1014.37 1014.75 1014.99 1015.21 1015.34 1015.55 1015.81 1016.37 1016.80 1017.16 1017.21 1016.87 1016.62 1016.47 1016.36 1016.08 1015.78 1015.49 1015.17 1014.92 1014.55 1014.46 1014.45 1014.32 1014.22 1014.13 1014.01 1013.89 1013.87 1013.88 1013.79
1012.10 1012.28 1011.90 1011.25 1011.12 1011.41 1011.83 1012.05 1012.40 1012.75 1013.24 1013.53 1014.01 1014.67 1015.10 1015.25 1015.28 1014.97 1014.59 1014.31 1014.08 1014.11 1014.41 1014.63 1014.96 1015.36 1015.74 1015.93 1016.23 1016.53 1017.19 1017.68 1018.07 1018.32 1018.08 1017.72 1017.46 1017.26 1016.88 1016.51 1016.20 1015.94 1015.68 1015.31 1014.95 1014.76 1014.76 1014.55 1014.51 1014.43 1014.40 1014.32 1014.21 1014.06
1010.38 1010.42 1009.96 1010.27 1010.63 1011.14 1011.39 1011.89 1012.21 1012.49 1012.82 1013.33 1013.84 1014.41 1014.83 1015.28 1015.54 1015.07 1014.65 1014.51 1014.34 1014.47 1014.72 1014.85 1014.94 1015.51 1015.98 1016.28 1016.63 1016.90 1017.36 1018.02 1018.42 1018.58 1018.68 1018.42 1018.26 1018.01 1017.64 1017.19 1016.97 1016.59 1016.19 1015.69 1015.48 1015.35 1015.26 1015.06 1014.93 1014.83 1014.66 1014.51 1014.36 1014.16
1008.91 1008.85 1008.96 1009.42 1010.16 1010.70 1010.95 1011.21 1011.74 1012.12 1012.54 1012.99 1013.69 1014.26 1014.89 1015.50 1015.32 1014.88 1014.70 1014.63 1014.56 1014.76 1015.23 1015.46 1015.57 1016.07 1016.47 1016.71 1017.10 1017.19 1017.37 1017.87 1018.42 1018.67 1018.76 1018.73 1018.67 1018.50 1018.21 1017.80 1017.57 1017.09 1016.56 1015.99 1015.81 1015.68 1015.57 1015.44 1015.29 1015.14 1015.00 1014.79 1014.61 1014.38
1008.11 1008.20 1008.41 1008.59 1009.31 1009.84 1010.41 1010.93 1011.22 1011.54 1012.22 1012.93 1013.26 1013.84 1014.38 1014.78 1014.84 1014.87 1014.91 1014.91 1015.16 1015.45 1015.85 1016.07 1016.12 1016.66 1017.04 1017.27 1017.48 1017.46 1017.57 1017.98 1018.35 1018.63 1018.82 1018.73 1018.65 1018.58 1018.45 1018.13 1017.96 1017.52 1016.99 1016.55 1016.29 1016.06 1015.94 1015.81 1015.63 1015.48 1015.33 1015.14 1014.91 1014.65
Wind_Speed
18 18 17 18 17 18 20 19 16 16 16 16 16 14 12 10 9 3 5 4 5 4 12 14 20 17 12 10 10 7 6 6 6 4 3 4 5 5 6 10 6 4 6 8 6 4 5 3 3 3 4 6 6 7
17 17 17 17 17 18 18 18 17 16 17 17 16 14 13 13 11 7 4 2 2 5 6 17 20 20 19 21 12 10 5 4 3 5 3 5 4 2 5 5 7 2 0 6 6 3 3 7 7 0 1 7 5 4
16 16 17 17 18 18 18 18 17 17 17 18 18 17 15 14 13 8 6 3 3 3 8 11 14 19 19 22 18 12 8 9 4 1 2 2 6 2 4 0 6 9 14 6 9 13 19 5 6 6 7 7 7 9
15 16 17 18 18 18 18 18 18 18 17 17 18 17 16 15 14 9 5 5 3 3 5 10 10 16 20 17 14 21 19 10 5 3 5 2 3 6 1 5 3 4 6 10 7 12 20 18 23 10 5 14 15 13
15 16 17 17 17 18 18 18 17 17 18 18 19 18 16 15 13 9 8 7 5 3 4 10 19 15 5 5 12 11 16 13 3 2 4 2 5 4 4 3 3 4 3 4 3 11 5 9 16 30 12 16 14 11
16 17 17 17 18 18 18 19 19 20 21 20 20 19 18 14 10 6 3 2 2 2 3 5 7 11 7 9 9 9 12 6 6 6 3 3 6 5 4 2 5 3 2 5 3 2 3 5 19 26 22 5 9 14
16 17 17 18 19 19 21 22 22 22 23 22 21 19 16 12 5 4 4 1 2 2 3 5 6 5 11 5 3 5 7 4 4 3 2 3 2 2 4 3 3 4 5 9 7 5 8 17 8 17 22 9 18 19
17 18 18 19 21 22 24 25 25 24 25 25 21 17 14 9 6 5 5 4 7 2 1 4 5 5 5 4 5 2 2 3 2 2 1 3 3 2 2 5 3 5 10 7 5 8 10 9 15 18 19 16 20 15
18 19 20 21 23 24 24 25 25 25 28 25 22 18 2 3 3 2 9 8 3 0 2 2 3 4 5 4 4 4 4 0 1 1 0 1 3 2 5 1 4 5 7 11 10 8 8 12 8 5 4 11 11 15
20 21 22 23 25 25 24 25 26 26 30 26 3 0 2 4 15 13 2 2 1 1 1 3 2 5 4 2 4 2 3 3 2 2 3 4 4 4 8 7 6 10 11 10 7 8 9 10 7 6 4 2 7 7
21 22 23 25 26 26 26 25 24 25 17 0 3 1 4 12 1 2 2 3 3 3 4 4 6 4 4 2 1 2 1 2 1 3 2 3 5 5 9 10 9 9 9 10 7 8 9 7 4 4 6 6 7 7
21 22 24 25 26 27 24 24 22 9 4 5 5 6 3 1 2 4 3 3 5 3 6 4 4 6 3 1 2 3 2 2 3 3 3 3 4 6 11 5 2 3 1 3 5 6 5 4 3 6 7 7 4 2
21 23 24 25 26 27 24 21 19 13 12 2 2 4 2 2 5 5 6 4 4 3 2 5 3 2 2 1 2 3 1 4 3 4 3 3 6 11 13 9 6 6 9 12 5 2 7 3 5 10 9 8 8 7
22 24 25 25 25 23 24 21 15 8 4 3 3 8 5 5 4 7 4 6 8 7 8 6 3 3 4 5 1 4 5 5 4 5 4 3 8 9 8 5 5 8 10 7 8 10 12 9 7 7 6 6 6 8
21 25 26 19 16 22 23 24 17 3 4 4 5 6 8 10 13 10 3 5 7 5 3 4 2 2 3 4 5 5 5 5 4 2 3 6 8 4 9 11 12 12 10 8 8 7 6 7 5 5 6 6 6 7
20 24 2 10 22 27 27 16 3 3 3 1 2 11 8 10 12 15 12 13 12 11 1 5 7 6 10 6 7 10 5 6 4 4 6 6 7 8 12 11 10 9 11 10 7 7 10 8 6 4 5 6 7 7
18 6 17 21 24 29 10 2 4 3 3 3 6 10 8 10 10 10 10 11 10 12 12 5 8 8 4 6 5 3 1 3 3 3 2 4 5 6 7 7 9 11 10 7 7 8 7 8 8 7 6 7 7 6
6 10 19 23 18 10 3 3 4 4 7 11 8 12 10 9 10 12 12 13 9 10 8 9 5 8 7 8 6 5 5 6 6 5 6 10 7 6 6 7 5 6 6 8 7 10 10 13 8 6 9 3 6 9
13 14 24 24 9 5 5 3 2 4 7 6 8 9 8 9 10 12 12 13 13 9 6 5 8 7 8 6 9 5 5 6 3 4 4 4 6 6 5 6 6 6 7 8 8 6 8 11 10 9 9 8 4 4
21 18 17 13 4 4 3 4 2 3 5 5 6 7 8 8 8 10 11 12 8 9 11 8 7 6 6 6 5 6 5 4 5 3 5 8 5 7 6 5 3 5 7 7 7 11 8 8 8 7 6 5 7 5
7 5 9 2 4 5 3 3 3 2 2 3 5 4 3 7 10 12 11 9 8 12 10 7 7 8 8 9 10 11 13 8 6 8 4 2 4 4 4 4 7 8 8 8 7 8 9 6 5 5 5 7 6 8
4 9 4 4 1 4 2 3 1 3 1 0 2 2 3 5 5 6 5 10 10 6 5 7 8 7 9 13 11 12 12 11 10 10 12 9 10 10 9 8 7 7 8 9 8 9 8 6 5 8 4 5 6 6
10 3 4 3 1 3 5 2 1 1 1 2 4 2 3 3 4 4 4 5 5 7 9 9 9 8 8 6 11 13 15 14 10 8 10 8 8 11 12 12 12 12 11 10 9 9 7 8 10 9 9 10 7 6
1 4 4 4 1 3 3 3 0 2 2 4 1 4 5 3 2 3 3 7 7 9 9 10 9 9 9 10 8 10 10 11 11 10 11 11 8 9 11 10 11 11 11 10 9 9 10 10 12 11 12 12 11 10
4 5 1 6 5 3 4 2 1 2 3 2 4 5 2 4 3 3 4 5 7 8 8 8 8 6 6 7 8 9 12 11 11 11 12 8 9 9 10 9 11 10 10 10 10 12 11 10 11 12 12 10 11 12
2 3 2 7 4 3 2 4 4 4 5 4 6 4 3 3 4 4 2 4 5 4 5 5 5 5 7 7 8 8 9 10 10 10 11 10 11 10 10 10 10 9 10 8 10 11 11 12 13 14 13 14 15 14
8 12 8 4 3 2 4 5 5 6 5 5 4 2 3 5 3 2 3 5 3 4 3 3 5 7 7 7 8 8 8 10 10 9 7 9 10 9 8 8 9 7 8 9 8 9 10 10 10 10 9 9 11 12
4 5 6 9 1 2 4 6 7 5 6 2 3 6 4 4 3 2 3 4 2 4 5 1 6 7 8 8 8 8 8 9 10 10 8 9 9 9 10 8 8 12 9 7 5 7 7 8 9 10 11 10 9 10
4 4 2 2 6 4 3 3 5 6 8 6 5 4 3 3 2 1 3 5 6 2 5 7 8 8 8 7 8 8 9 8 11 14 14 9 8 7 8 8 7 7 7 9 8 7 9 6 7 8 10 8 8 8
5 6 4 5 4 3 4 4 5 6 7 7 7 7 5 3 2 4 5 5 5 5 6 6 6 7 7 7 7 8 9 8 8 8 8 8 8 7 8 9 9 9 8 8 9 9 11 9 9 7 8 6 5 6
5 6 3 5 5 7 6 6 5 5 5 7 7 5 4 3 2 4 5 6 6 7 7 6 6 7 7 7 7 7 5 7 9 10 7 6 7 7 7 8 8 8 8 7 7 8 8 7 6 7 8 8 9 8
3 3 2 3 5 6 6 7 6 4 3 4 3 3 3 1 1 2 4 6 7 7 8 8 7 8 8 7 7 5 4 7 6 5 7 6 6 6 8 7 7 8 9 7 6 6 8 8 7 8 8 9 9 10
2 2 2 4 6 6 5 5 4 2 4 2 3 4 3 2 1 3 5 6 6 7 7 6 7 8 8 8 8 6 6 6 8 8 4 4 5 4 5 5 6 8 11 8 9 9 11 12 10 11 11 11 11 11
Wind_Direction
330 331 334 336 335 334 337 339 337 345 342 337 336 332 329 328 329 316 276 254 222 215 265 257 266 270 276 274 285 332 338 6 288 204 260 184 209 230 288 271 315 64 10 266 204 160 236 57 338 62 214 86 50 54
333 339 339 335 331 331 333 338 341 339 339 337 332 328 325 320 316 322 272 294 288 255 274 294 278 274 271 267 283 284 256 171 293 293 352 329 237 171 309 270 74 119 266 298 329 161 309 23 119 69 72 84 65 352
336 337 333 332 329 331 332 332 332 331 331 330 328 324 321 320 315 301 289 294 286 273 277 248 256 259 236 236 231 252 255 244 218 228 302 235 295 215 227 322 301 18 32 307 328 5 343 219 140 294 58 62 40 40
337 333 333 331 327 327 328 329 329 329 325 322 322 319 316 312 310 298 286 265 253 281 275 286 299 309 302 298 253 216 235 260 122 1 269 280 236 273 69 258 238 67 337 315 278 5 343 8 350 284 171 91 70 47
334 334 334 330 330 330 325 321 320 316 311 312 312 311 306 304 305 298 269 255 207 198 284 294 299 275 37 327 259 269 205 226 139 121 257 254 285 300 238 209 65 88 60 338 331 325 296 324 336 359 45 85 88 72
328 329 328 328 326 322 318 315 315 314 311 307 304 302 301 292 302 299 311 33 78 172 307 297 327 292 346 331 313 282 212 208 183 174 215 202 243 276 294 42 97 92 303 282 290 55 155 300 21 4 353 62 94 84
319 319 319 318 316 313 311 306 305 307 311 306 304 297 294 277 253 254 259 235 32 55 264 291 297 305 316 299 227 231 186 186 225 144 206 259 307 312 320 30 29 225 271 287 241 262 28 38 16 20 351 21 66 61
315 315 314 313 310 310 308 307 307 308 303 304 302 296 290 265 236 254 249 252 135 195 216 278 281 289 347 290 194 167 162 96 34 111 320 312 302 229 277 355 324 355 325 205 100 77 105 109 45 24 1 348 46 44
319 317 315 315 312 312 312 308 307 310 307 302 301 300 236 184 218 243 115 97 60 72 242 228 274 298 2 280 14 33 42 297 95 219 113 298 295 253 319 272 6 12 360 109 125 127 110 88 89 67 343 348 26 42
317 318 317 315 315 315 316 310 309 317 310 309 292 240 248 196 122 134 154 126 120 212 187 251 234 261 266 64 354 316 180 202 186 75 49 8 319 312 41 34 20 41 18 16 106 111 110 99 101 91 73 22 26 26
314 315 314 315 316 317 315 311 318 323 295 274 332 345 15 139 200 235 277 193 167 248 211 237 219 253 193 258 244 152 134 63 110 156 120 5 345 5 38 36 22 30 48 38 44 33 36 44 47 58 70 67 59 46
310 312 312 314 315 314 311 311 322 321 341 317 289 276 249 229 288 311 276 225 202 252 179 228 226 210 276 244 28 12 28 198 64 54 51 24 297 330 346 341 333 310 111 145 145 162 160 148 110 76 51 26 23 70
308 310 312 313 314 309 305 314 317 305 289 211 221 236 129 90 351 329 327 290 277 232 194 217 247 189 147 119 173 225 260 55 60 44 34 279 309 319 329 310 279 230 250 271 222 320 89 88 77 81 64 54 27 13
306 306 310 313 308 300 308 317 330 331 285 280 305 358 23 326 207 253 238 282 282 259 280 273 216 171 182 186 240 61 49 40 59 34 343 297 303 319 292 239 247 206 203 185 99 92 87 71 60 71 85 76 66 56
306 306 310 302 297 310 321 321 318 217 270 340 12 350 6 333 339 321 169 250 260 259 283 312 83 147 71 52 28 43 58 54 44 310 285 313 320 328 16 46 48 54 51 52 52 50 68 101 100 70 67 58 57 50
314 307 289 314 341 325 320 313 246 233 238 89 301 4 352 346 349 349 6 355 4 3 44 32 14 33 32 29 13 23 36 23 10 9 17 8 354 19 54 52 43 47 57 44 30 50 32 10 64 59 57 47 48 62
310 232 355 344 333 316 307 277 263 265 5 59 4 1 4 359 356 354 353 3 1 21 24 42 43 35 11 26 39 27 46 331 338 356 81 317 314 41 50 44 48 59 39 40 52 50 353 12 42 34 56 37 17 12
247 321 325 323 338 299 278 217 320 358 32 7 23 10 21 11 11 14 26 10 15 22 29 48 45 27 28 20 50 28 21 18 30 48 28 28 13 45 68 61 46 63 57 55 80 89 15 31 37 28 24 66 28 34
288 297 298 301 311 304 300 10 357 348 60 17 29 22 12 26 34 34 27 31 31 27 36 38 43 30 29 38 45 30 31 87 60 320 297 334 360 39 48 42 44 51 53 51 36 47 54 46 35 20 14 6 28 30
292 279 275 283 234 273 344 336 334 12 17 17 40 25 30 41 32 43 40 26 21 31 44 53 60 47 44 19 357 13 342 88 125 7 8 17 350 26 30 37 20 69 57 41 49 49 48 44 29 5 356 23 12 4
281 330 321 222 191 242 360 333 3 55 325 17 36 33 5 34 40 37 36 19 36 40 43 51 67 57 48 38 26 15 11 8 35 27 344 346 332 314 4 39 57 54 50 37 37 48 53 45 2 348 17 14 360 29
339 330 287 222 343 347 326 327 332 297 344 16 51 67 25 28 31 23 21 39 45 34 30 24 33 58 46 39 25 18 5 7 31 19 12 17 29 20 29 26 41 53 51 39 32 29 26 17 14 357 11 13 9 38
284 215 233 247 357 60 259 198 302 22 92 13 355 29 26 41 37 8 47 8 24 25 20 23 19 42 33 48 48 22 10 9 10 19 7 9 33 37 45 41 40 34 31 21 17 15 7 7 2 0 15 20 9 46
14 293 321 312 165 282 339 305 235 266 216 97 109 29 13 23 73 64 53 32 20 17 16 12 19 13 16 12 52 40 22 9 7 4 10 352 45 43 63 48 39 30 20 5 7 13 14 14 19 18 29 19 10 9
354 309 255 298 252 267 225 261 24 10 337 332 128 142 248 41 28 55 41 12 9 13 347 8 4 354 4 16 34 47 33 24 7 357 3 10 36 36 29 41 52 26 5 9 16 12 8 10 21 13 9 15 3 349
23 173 134 351 350 0 354 352 358 355 13 14 22 93 90 115 63 37 338 307 309 352 354 347 323 357 37 33 48 48 42 36 17 2 351 34 37 34 26 26 31 13 351 17 16 4 9 18 15 6 1 358 357 18
19 4 322 18 78 331 339 31 14 27 31 17 345 356 120 80 72 86 246 258 313 328 326 330 1 28 25 38 48 62 56 48 30 356 355 48 45 32 19 30 34 358 0 25 11 12 27 13 357 354 356 7 29 21
201 210 270 307 259 215 44 33 14 18 349 34 13 34 50 46 66 102 240 283 307 290 308 318 56 46 37 44 43 45 59 51 31 8 9 39 37 31 13 15 20 8 3 358 8 39 16 16 11 13 22 24 27 12
208 223 242 330 36 44 41 58 29 31 355 4 66 64 75 67 78 318 325 291 291 27 48 41 53 46 32 34 44 48 63 53 36 25 15 14 16 14 4 8 3 4 4 352 49 59 1 16 37 31 22 26 26 1
216 177 229 123 61 95 50 72 66 92 93 82 96 106 116 106 58 308 333 358 359 47 48 36 69 65 36 32 32 44 78 68 59 41 5 0 6 2 357 1 11 7 1 352 358 26 20 16 26 20 24 14 17 353
159 212 154 130 123 135 143 125 119 115 104 96 96 134 146 117 334 308 315 9 7 53 37 7 41 80 55 36 45 25 50 87 69 55 28 10 14 5 353 7 5 353 345 357 13 29 17 13 20 13 8 10 8 2
291 32 115 124 124 139 180 176 171 171 152 146 138 135 113 131 198 313 31 8 15 35 42 22 38 67 54 47 36 23 67 88 89 65 45 33 28 13 349 12 1 350 340 5 19 21 20 20 19 16 10 10 6 356
352 46 357 162 155 163 167 170 204 180 135 145 157 123 90 71 51 65 41 31 61 65 51 21 58 84 78 60 34 3 92 100 123 130 164 259 280 298 318 359 4 359 352 13 4 14 16 16 15 19 14 11 7 7